Location: T�chigga el Be�da
(16.4766°N, 9.3887°W)
Time: 05:50:03
(UTC+00:00)

ATLAS 2AS CENTAUR R/B - Pass Details

Date: 27 February 2020
Orbit: 929 x 1283 km, 63.7° (Epoch: 05 April)

Event Time Altitude Azimuth Distance (km) Brightness Sun altitude
Rises 19:37:05 0° 186° (S) 4,015 5.9 -13.5°
Reaches altitude 10° 19:39:53 10° 179° (S) 3,102 5.2 -14.2°
Maximum altitude 19:46:55 43° 110° (ESE) 1,669 3.3 -15.8°
Enters shadow 19:53:44 12° 43° (NE) 3,088 4.7 -17.5°
